TimeEST,TemperatureF,Dew PointF,Humidity,Sea Level PressureIn,VisibilityMPH,Wind Direction,Wind SpeedMPH,Gust SpeedMPH,PrecipitationIn,Events,Conditions,WindDirDegrees,DateUTC
12:11 AM,30.0,27.0,88,30.01,7.0,West,5.8,-,N/A,,Overcast,280,2013-02-25 05:11:00
12:53 AM,28.9,27.0,92,30.03,6.0,West,5.8,-,N/A,,Overcast,280,2013-02-25 05:53:00
1:53 AM,28.9,28.0,96,30.05,5.0,Calm,Calm,-,0.00,,Overcast,0,2013-02-25 06:53:00
2:53 AM,30.0,28.0,92,30.06,6.0,Calm,Calm,-,N/A,,Overcast,0,2013-02-25 07:53:00
3:53 AM,30.0,28.0,92,30.07,6.0,Calm,Calm,-,N/A,,Overcast,0,2013-02-25 08:53:00
4:05 AM,30.0,28.9,96,30.06,6.0,Calm,Calm,-,N/A,,Overcast,0,2013-02-25 09:05:00
4:53 AM,30.0,28.9,96,30.09,5.0,Calm,Calm,-,N/A,,Overcast,0,2013-02-25 09:53:00
5:07 AM,30.0,28.9,96,30.07,5.0,West,5.8,-,N/A,,Overcast,280,2013-02-25 10:07:00
5:22 AM,30.0,28.9,96,30.08,6.0,West,4.6,-,N/A,,Overcast,280,2013-02-25 10:22:00
5:42 AM,30.0,28.9,96,30.08,6.0,NW,3.5,-,N/A,,Overcast,310,2013-02-25 10:42:00
5:53 AM,30.0,28.9,96,30.11,5.0,NW,3.5,-,N/A,,Overcast,310,2013-02-25 10:53:00
6:08 AM,30.0,28.9,96,30.09,5.0,NW,3.5,-,N/A,,Overcast,320,2013-02-25 11:08:00
6:45 AM,30.0,28.9,96,30.10,5.0,WNW,3.5,-,N/A,,Overcast,300,2013-02-25 11:45:00
6:53 AM,30.0,28.9,96,30.12,5.0,Calm,Calm,-,N/A,,Overcast,0,2013-02-25 11:53:00
7:15 AM,30.0,30.0,100,30.11,4.0,WNW,3.5,-,N/A,,Overcast,290,2013-02-25 12:15:00
7:42 AM,30.9,30.0,96,30.11,5.0,West,6.9,-,N/A,,Overcast,280,2013-02-25 12:42:00
7:53 AM,30.9,30.0,96,30.13,6.0,West,5.8,-,N/A,,Overcast,280,2013-02-25 12:53:00
8:07 AM,32.0,30.0,92,30.12,6.0,West,5.8,-,N/A,,Overcast,270,2013-02-25 13:07:00
8:53 AM,32.0,30.0,92,30.14,9.0,WNW,6.9,-,N/A,,Overcast,300,2013-02-25 13:53:00
9:53 AM,33.1,30.0,89,30.16,10.0,West,4.6,-,N/A,,Overcast,280,2013-02-25 14:53:00
10:29 AM,35.1,30.0,82,30.16,10.0,West,10.4,-,N/A,,Overcast,270,2013-02-25 15:29:00
10:50 AM,35.6,30.2,81,30.15,10.0,West,8.1,-,N/A,,Mostly Cloudy,270,2013-02-25 15:50:00
10:53 AM,35.1,30.0,82,30.17,10.0,West,10.4,-,N/A,,Mostly Cloudy,260,2013-02-25 15:53:00
11:07 AM,35.1,30.0,82,30.15,10.0,West,10.4,-,N/A,,Mostly Cloudy,270,2013-02-25 16:07:00
11:53 AM,36.0,30.0,79,30.17,10.0,West,9.2,-,N/A,,Mostly Cloudy,270,2013-02-25 16:53:00
12:53 PM,36.0,28.0,73,30.19,10.0,WNW,10.4,-,N/A,,Overcast,290,2013-02-25 17:53:00
1:53 PM,37.0,28.9,73,30.19,10.0,WNW,15.0,-,N/A,,Overcast,290,2013-02-25 18:53:00
2:53 PM,36.0,28.9,76,30.21,10.0,West,12.7,-,N/A,,Overcast,280,2013-02-25 19:53:00
3:07 PM,35.1,28.9,78,30.20,10.0,West,13.8,-,N/A,,Scattered Clouds,280,2013-02-25 20:07:00
3:53 PM,35.1,28.0,76,30.21,10.0,WNW,13.8,-,N/A,,Partly Cloudy,300,2013-02-25 20:53:00
4:53 PM,35.1,26.1,70,30.22,10.0,West,10.4,-,N/A,,Clear,280,2013-02-25 21:53:00
5:53 PM,33.1,25.0,72,30.22,10.0,West,5.8,-,N/A,,Clear,280,2013-02-25 22:53:00
6:53 PM,28.9,24.1,82,30.23,10.0,NNE,3.5,-,N/A,,Clear,20,2013-02-25 23:53:00
7:53 PM,27.0,23.0,85,30.25,10.0,Calm,Calm,-,N/A,,Clear,0,2013-02-26 00:53:00
8:53 PM,26.1,24.1,92,30.26,10.0,Calm,Calm,-,N/A,,Clear,0,2013-02-26 01:53:00
9:53 PM,23.0,21.0,92,30.26,10.0,Calm,Calm,-,N/A,,Clear,0,2013-02-26 02:53:00
10:53 PM,19.9,19.0,96,30.28,10.0,Calm,Calm,-,N/A,,Clear,0,2013-02-26 03:53:00
11:53 PM,19.9,19.0,96,30.27,10.0,SE,3.5,-,N/A,,Clear,130,2013-02-26 04:53:00